SHERPA-LTC2 (53754 NORAD) Tracking and Keplerian Element Data

This shows tracking and keplerian element data for the satellite.

Feedback or suggestion? Click here.




ElementValue
Catalog53754
NameSHERPA-LTC2
Epoch Orbit1221
Epoch Day325.18233531
Epoch Year2022
RAAN250.2775
Inclination53.2266
Eccentricity0.0522456
Argument of Perigee238.9636
Mean Anonmoly115.9045
Mean Motion14.58497064
Decay Rate0.00010628
L11 53754U 22107BG 22325.18233531 .00010628 00000+0 30543-3 0 9990
L22 53754 53.2266 250.2775 0522456 238.9636 115.9045 14.58497064 12218



Live tracking and technical data element details for SHERPA-LTC2 (NORAD 53754). SHERPA-LTC2 can be tracked NOW for your location showing map with azimuth and elevation plus other details from your city location.







IsCatalogInMostPopularTable: catalog: 53754, numindb: -1

Insert: records affected: 1


GetName: 53754 SHERPA-LTC2

Hit Count: inserted at: Thu, 08 Dec 2022 10:28:55 GMT